GFSMA_prec_precacc24_105.txt.gz
Total_Precipitation_Accumulation
0.02 0.00 0.01 0.01 0.01 0.01 0.01 0.04 0.09 0.22 0.38 0.42 0.47 0.52 0.45 0.31 0.30 0.24 0.29 0.42 0.70 1.09 0.62 0.78 0.40 0.27 0.18 0.11 0.09 0.05 0.02 0.00 0.00 0.00 0.01 0.00 0.01 0.01 0.00 0.00 0.01 0.00 0.00
0.04 0.01 0.01 0.01 0.01 0.01 0.03 0.08 0.16 0.31 0.48 0.51 0.68 0.60 0.56 0.42 0.36 0.35 0.20 0.21 0.30 0.84 1.18 0.71 0.90 0.26 0.13 0.11 0.16 0.13 0.05 0.03 0.02 0.02 0.01 0.01 0.01 0.01 0.00 0.00 0.00 0.00 0.00
0.04 0.02 0.03 0.02 0.01 0.01 0.03 0.08 0.22 0.57 0.64 0.51 0.66 0.63 0.56 0.51 0.48 0.46 0.35 0.16 0.18 0.34 1.57 1.35 1.30 0.42 0.20 0.13 0.14 0.11 0.08 0.06 0.03 0.03 0.01 0.00 0.01 0.01 0.01 0.00 0.01 0.01 0.00
0.08 0.05 0.04 0.03 0.03 0.08 0.14 0.20 0.20 0.57 0.54 0.40 0.36 0.51 0.50 0.54 0.53 0.60 0.55 0.37 0.33 0.26 0.83 1.72 1.79 1.54 0.41 0.15 0.15 0.10 0.05 0.03 0.03 0.03 0.02 0.01 0.01 0.01 0.01 0.01 0.00 0.00 0.00
0.07 0.07 0.05 0.04 0.07 0.13 0.14 0.28 0.30 0.47 0.61 0.40 0.23 0.32 0.36 0.47 0.54 0.58 0.66 0.54 0.58 0.53 0.39 0.92 1.09 1.03 0.57 0.30 0.13 0.12 0.06 0.02 0.03 0.03 0.02 0.01 0.01 0.02 0.01 0.01 0.01 0.00 0.00
0.06 0.08 0.08 0.08 0.12 0.12 0.11 0.29 0.39 0.45 0.61 0.44 0.29 0.31 0.23 0.27 0.42 0.52 0.62 0.64 0.61 0.85 0.56 0.68 0.41 0.47 0.24 0.09 0.10 0.10 0.08 0.02 0.02 0.03 0.02 0.02 0.02 0.02 0.02 0.01 0.00 0.00 0.00
0.09 0.12 0.08 0.07 0.06 0.06 0.12 0.26 0.43 0.45 0.59 0.59 0.55 0.48 0.37 0.23 0.24 0.38 0.50 0.46 0.68 0.66 0.79 0.89 0.43 0.23 0.09 0.04 0.02 0.05 0.05 0.03 0.03 0.03 0.03 0.02 0.02 0.01 0.01 0.00 0.00 0.00 0.00
0.05 0.08 0.07 0.08 0.12 0.12 0.05 0.26 0.35 0.38 0.49 0.45 0.41 0.35 0.41 0.45 0.43 0.33 0.32 0.36 0.40 0.51 0.55 1.08 0.88 0.31 0.11 0.04 0.01 0.01 0.04 0.05 0.03 0.03 0.03 0.03 0.01 0.01 0.01 0.01 0.00 0.00 0.00
0.19 0.14 0.17 0.19 0.14 0.21 0.17 0.19 0.28 0.24 0.33 0.36 0.17 0.25 0.20 0.22 0.20 0.31 0.31 0.27 0.32 0.33 0.29 0.51 0.82 0.43 0.18 0.09 0.03 0.01 0.01 0.03 0.04 0.03 0.03 0.02 0.01 0.01 0.00 0.00 0.00 0.00 0.00
0.70 0.56 0.29 0.26 0.24 0.19 0.30 0.27 0.29 0.32 0.32 0.33 0.22 0.21 0.09 0.08 0.09 0.20 0.28 0.31 0.22 0.21 0.24 0.22 0.27 0.26 0.15 0.08 0.05 0.02 0.00 0.00 0.02 0.02 0.02 0.02 0.01 0.01 0.00 0.00 0.00 0.00 0.01
0.27 0.48 0.50 0.43 0.46 0.34 0.34 0.38 0.36 0.37 0.28 0.29 0.16 0.16 0.16 0.12 0.20 0.20 0.26 0.27 0.27 0.16 0.09 0.11 0.14 0.14 0.11 0.03 0.02 0.01 0.00 0.00 0.00 0.01 0.02 0.01 0.01 0.01 0.01 0.00 0.00 0.00 0.00
0.09 0.10 0.23 0.21 0.30 0.42 0.46 0.58 0.54 0.42 0.32 0.30 0.29 0.18 0.15 0.15 0.16 0.23 0.25 0.23 0.24 0.23 0.20 0.14 0.06 0.04 0.05 0.04 0.02 0.01 0.00 0.00 0.00 0.00 0.01 0.01 0.01 0.01 0.01 0.01 0.01 0.00 0.00
0.07 0.04 0.11 0.17 0.20 0.26 0.28 0.38 0.47 0.55 0.42 0.33 0.32 0.24 0.17 0.16 0.21 0.28 0.39 0.37 0.29 0.20 0.25 0.22 0.14 0.06 0.01 0.00 0.00 0.01 0.00 0.00 0.00 0.00 0.00 0.00 0.01 0.01 0.01 0.01 0.01 0.01 0.01
0.04 0.08 0.08 0.20 0.27 0.42 0.51 0.44 0.47 0.44 0.52 0.43 0.35 0.31 0.19 0.19 0.24 0.23 0.23 0.30 0.32 0.24 0.14 0.10 0.07 0.09 0.07 0.04 0.02 0.00 0.00 0.00 0.00 0.00 0.00 0.00 0.00 0.00 0.00 0.00 0.00 0.01 0.02
0.14 0.15 0.08 0.21 0.35 0.43 0.59 0.68 0.53 0.49 0.49 0.54 0.43 0.38 0.27 0.19 0.21 0.24 0.23 0.21 0.22 0.26 0.17 0.10 0.07 0.04 0.05 0.09 0.08 0.03 0.00 0.00 0.00 0.00 0.00 0.00 0.00 0.00 0.01 0.01 0.01 0.01 0.01
0.23 0.21 0.16 0.21 0.23 0.45 0.63 0.75 0.63 0.57 0.64 0.60 0.60 0.54 0.38 0.26 0.21 0.18 0.17 0.13 0.15 0.18 0.20 0.12 0.08 0.04 0.06 0.07 0.08 0.06 0.02 0.02 0.00 0.01 0.02 0.02 0.01 0.01 0.02 0.02 0.02 0.01 0.00
0.27 0.20 0.18 0.15 0.19 0.31 0.58 0.85 0.94 0.67 0.66 0.72 0.66 0.62 0.48 0.35 0.35 0.28 0.22 0.20 0.16 0.15 0.17 0.21 0.11 0.09 0.09 0.08 0.07 0.05 0.03 0.03 0.02 0.03 0.04 0.05 0.05 0.05 0.04 0.02 0.01 0.01 0.00
0.19 0.17 0.08 0.11 0.09 0.15 0.34 0.95 1.23 1.11 0.68 0.61 0.72 0.73 0.73 0.53 0.41 0.38 0.33 0.30 0.23 0.19 0.15 0.17 0.17 0.12 0.09 0.07 0.12 0.15 0.16 0.11 0.02 0.04 0.02 0.01 0.01 0.01 0.01 0.02 0.00 0.00 0.00
0.08 0.10 0.06 0.06 0.06 0.06 0.12 0.38 0.77 0.99 0.83 0.67 0.66 0.77 0.71 0.65 0.56 0.45 0.38 0.36 0.31 0.26 0.30 0.22 0.18 0.11 0.09 0.09 0.19 0.27 0.19 0.07 0.01 0.02 0.01 0.02 0.02 0.02 0.03 0.03 0.03 0.03 0.03
0.09 0.08 0.07 0.09 0.07 0.04 0.14 0.23 0.30 0.50 0.72 0.79 0.78 0.81 0.85 0.75 0.57 0.44 0.38 0.37 0.39 0.39 0.31 0.25 0.21 0.18 0.15 0.15 0.18 0.13 0.08 0.06 0.07 0.09 0.12 0.19 0.21 0.21 0.20 0.19 0.19 0.20 0.19
0.20 0.10 0.06 0.04 0.07 0.03 0.05 0.11 0.21 0.30 0.52 0.74 0.80 0.82 0.68 0.77 0.76 0.72 0.57 0.47 0.42 0.40 0.41 0.38 0.34 0.32 0.29 0.29 0.31 0.31 0.34 0.28 0.33 0.34 0.33 0.33 0.32 0.30 0.35 0.37 0.31 0.28 0.23
0.38 0.13 0.09 0.07 0.06 0.04 0.11 0.10 0.12 0.15 0.20 0.33 0.46 0.58 0.76 0.77 0.75 0.84 0.89 0.85 0.73 0.60 0.51 0.41 0.36 0.34 0.31 0.26 0.28 0.32 0.33 0.32 0.33 0.26 0.25 0.32 0.31 0.30 0.30 0.30 0.42 0.31 0.25
0.78 0.57 0.23 0.11 0.08 0.06 0.12 0.11 0.14 0.08 0.13 0.10 0.16 0.29 0.43 0.83 0.90 0.70 0.84 0.87 0.94 0.99 0.77 0.62 0.48 0.38 0.33 0.35 0.39 0.42 0.40 0.41 0.40 0.40 0.50 0.53 0.47 0.50 0.47 0.48 0.43 0.23 0.17
1.21 1.01 0.49 0.22 0.10 0.09 0.14 0.15 0.18 0.05 0.12 0.16 0.12 0.12 0.19 0.33 0.73 0.82 0.75 0.91 0.97 0.95 1.03 0.82 0.69 0.69 0.56 0.48 0.41 0.34 0.34 0.37 0.43 0.45 0.40 0.40 0.33 0.31 0.31 0.29 0.35 0.19 0.15
0.94 1.00 0.88 0.54 0.30 0.18 0.24 0.21 0.17 0.03 0.05 0.10 0.15 0.17 0.15 0.10 0.28 0.42 0.38 0.47 0.62 0.79 0.87 0.85 0.74 0.63 0.65 0.67 0.58 0.44 0.42 0.34 0.35 0.29 0.21 0.17 0.18 0.19 0.20 0.17 0.16 0.12 0.07
1.10 0.94 0.87 0.72 0.61 0.32 0.33 0.26 0.20 0.07 0.11 0.08 0.08 0.15 0.26 0.19 0.24 0.18 0.15 0.20 0.27 0.39 0.51 0.56 0.51 0.51 0.47 0.47 0.49 0.37 0.37 0.35 0.31 0.29 0.20 0.15 0.13 0.10 0.12 0.10 0.06 0.05 0.03

GFSMA_prec_precacc24_108.txt.gz
Total_Precipitation_Accumulation
0.00 0.00 0.00 0.00 0.00 0.01 0.01 0.03 0.06 0.11 0.25 0.33 0.47 0.54 0.49 0.34 0.36 0.37 0.36 0.42 0.74 1.11 0.68 0.91 0.61 0.55 0.59 0.39 0.21 0.05 0.02 0.01 0.00 0.00 0.00 0.00 0.01 0.01 0.00 0.00 0.01 0.00 0.00
0.01 0.00 0.01 0.01 0.00 0.00 0.01 0.02 0.04 0.08 0.29 0.44 0.65 0.62 0.59 0.46 0.41 0.43 0.27 0.23 0.31 0.84 1.22 0.80 1.09 0.56 0.40 0.31 0.27 0.16 0.06 0.04 0.02 0.01 0.01 0.01 0.01 0.01 0.00 0.00 0.00 0.00 0.00
0.01 0.00 0.01 0.01 0.01 0.01 0.01 0.02 0.04 0.14 0.31 0.37 0.64 0.64 0.58 0.53 0.50 0.48 0.40 0.20 0.19 0.34 1.59 1.42 1.45 0.66 0.62 0.48 0.25 0.15 0.10 0.07 0.04 0.03 0.01 0.00 0.01 0.01 0.01 0.00 0.01 0.01 0.00
0.01 0.01 0.01 0.01 0.02 0.07 0.10 0.07 0.03 0.07 0.21 0.28 0.36 0.51 0.50 0.56 0.55 0.61 0.57 0.40 0.34 0.26 0.85 1.78 1.92 1.96 1.00 0.88 0.44 0.13 0.09 0.06 0.04 0.04 0.02 0.01 0.01 0.01 0.01 0.01 0.00 0.00 0.00
0.01 0.01 0.01 0.02 0.05 0.13 0.09 0.07 0.07 0.09 0.37 0.31 0.23 0.32 0.37 0.49 0.57 0.60 0.68 0.57 0.59 0.53 0.41 0.96 1.14 1.48 1.63 1.19 0.77 0.20 0.10 0.04 0.03 0.03 0.02 0.01 0.01 0.02 0.01 0.01 0.01 0.00 0.00
0.02 0.04 0.04 0.07 0.11 0.11 0.08 0.04 0.08 0.20 0.46 0.41 0.30 0.32 0.24 0.29 0.45 0.54 0.63 0.65 0.61 0.85 0.57 0.71 0.42 0.51 0.64 0.84 0.79 0.31 0.14 0.04 0.02 0.03 0.02 0.02 0.02 0.02 0.02 0.01 0.00 0.00 0.00
0.07 0.06 0.04 0.04 0.05 0.06 0.10 0.08 0.16 0.26 0.41 0.57 0.56 0.49 0.37 0.24 0.25 0.38 0.50 0.47 0.68 0.66 0.80 0.91 0.44 0.27 0.23 0.37 0.44 0.32 0.12 0.05 0.03 0.03 0.03 0.02 0.02 0.01 0.01 0.01 0.00 0.00 0.00
0.16 0.11 0.09 0.10 0.13 0.10 0.04 0.07 0.15 0.27 0.38 0.42 0.42 0.35 0.41 0.44 0.43 0.35 0.33 0.36 0.40 0.51 0.55 1.10 1.05 0.41 0.23 0.18 0.28 0.21 0.14 0.11 0.05 0.03 0.03 0.03 0.01 0.01 0.01 0.01 0.01 0.01 0.00
0.21 0.14 0.09 0.14 0.31 0.52 0.46 0.15 0.12 0.16 0.28 0.33 0.17 0.25 0.20 0.21 0.20 0.31 0.32 0.28 0.32 0.33 0.29 0.53 1.12 0.77 0.45 0.24 0.19 0.13 0.07 0.09 0.07 0.04 0.03 0.02 0.01 0.01 0.00 0.01 0.01 0.01 0.01
0.69 0.57 0.32 0.29 0.30 0.28 0.35 0.39 0.24 0.24 0.27 0.31 0.21 0.21 0.09 0.08 0.09 0.19 0.28 0.31 0.22 0.21 0.24 0.24 0.53 0.91 0.69 0.41 0.19 0.08 0.03 0.02 0.03 0.03 0.02 0.02 0.01 0.01 0.01 0.01 0.01 0.01 0.01
0.27 0.48 0.51 0.40 0.39 0.31 0.28 0.37 0.33 0.28 0.24 0.26 0.16 0.16 0.16 0.13 0.20 0.20 0.26 0.28 0.28 0.16 0.09 0.12 0.20 0.44 0.69 0.70 0.31 0.14 0.03 0.00 0.00 0.01 0.02 0.02 0.01 0.01 0.01 0.00 0.00 0.00 0.01
0.16 0.17 0.29 0.19 0.20 0.34 0.36 0.52 0.66 0.48 0.36 0.32 0.29 0.17 0.14 0.15 0.16 0.23 0.25 0.22 0.24 0.23 0.20 0.14 0.06 0.11 0.25 0.49 0.38 0.25 0.10 0.00 0.00 0.00 0.01 0.02 0.02 0.01 0.01 0.01 0.01 0.01 0.00
0.31 0.30 0.22 0.12 0.09 0.12 0.20 0.26 0.46 0.69 0.55 0.38 0.34 0.23 0.17 0.16 0.21 0.28 0.40 0.38 0.28 0.20 0.23 0.22 0.15 0.09 0.07 0.08 0.15 0.18 0.14 0.06 0.01 0.00 0.00 0.01 0.01 0.01 0.01 0.01 0.01 0.01 0.01
0.12 0.30 0.32 0.19 0.17 0.26 0.45 0.52 0.59 0.53 0.58 0.62 0.46 0.37 0.23 0.21 0.26 0.23 0.23 0.33 0.33 0.24 0.13 0.08 0.08 0.10 0.09 0.04 0.03 0.03 0.04 0.08 0.06 0.02 0.00 0.00 0.00 0.00 0.00 0.00 0.00 0.01 0.02
0.19 0.21 0.11 0.24 0.34 0.44 0.47 0.68 0.55 0.52 0.50 0.54 0.48 0.49 0.38 0.23 0.23 0.24 0.22 0.21 0.21 0.25 0.17 0.11 0.07 0.04 0.04 0.07 0.08 0.04 0.00 0.01 0.02 0.01 0.00 0.00 0.00 0.01 0.01 0.01 0.01 0.01 0.01
0.30 0.27 0.19 0.20 0.23 0.42 0.57 0.65 0.56 0.54 0.66 0.69 0.75 0.73 0.50 0.29 0.22 0.18 0.17 0.13 0.15 0.17 0.22 0.15 0.09 0.05 0.08 0.09 0.09 0.07 0.02 0.04 0.02 0.02 0.02 0.02 0.01 0.02 0.02 0.02 0.02 0.01 0.00
0.41 0.33 0.30 0.22 0.21 0.29 0.58 0.82 0.89 0.76 0.84 0.88 0.82 0.76 0.57 0.40 0.36 0.28 0.22 0.19 0.15 0.15 0.19 0.23 0.12 0.10 0.10 0.11 0.08 0.05 0.03 0.03 0.02 0.04 0.04 0.05 0.05 0.05 0.04 0.02 0.01 0.01 0.00
0.45 0.49 0.31 0.19 0.18 0.17 0.36 0.92 1.18 1.06 0.86 0.92 1.09 0.96 0.84 0.58 0.42 0.38 0.33 0.30 0.23 0.19 0.15 0.18 0.18 0.13 0.10 0.08 0.12 0.15 0.17 0.15 0.04 0.05 0.03 0.01 0.01 0.01 0.01 0.02 0.00 0.00 0.00
0.29 0.47 0.49 0.42 0.31 0.15 0.13 0.37 0.76 1.04 0.88 0.75 0.96 1.21 0.85 0.68 0.55 0.44 0.38 0.37 0.31 0.27 0.32 0.27 0.20 0.13 0.10 0.10 0.19 0.33 0.28 0.13 0.04 0.05 0.03 0.03 0.02 0.02 0.03 0.03 0.03 0.03 0.03
0.17 0.19 0.33 0.40 0.39 0.21 0.15 0.21 0.28 0.55 0.92 0.84 0.79 0.79 0.85 0.76 0.58 0.45 0.38 0.37 0.40 0.41 0.35 0.35 0.30 0.23 0.18 0.19 0.30 0.23 0.16 0.12 0.12 0.12 0.15 0.19 0.21 0.21 0.20 0.19 0.20 0.20 0.19
0.38 0.28 0.21 0.20 0.30 0.17 0.12 0.15 0.21 0.31 0.60 0.86 0.80 0.79 0.65 0.72 0.72 0.67 0.55 0.46 0.42 0.41 0.43 0.39 0.38 0.37 0.34 0.35 0.36 0.31 0.29 0.27 0.40 0.47 0.37 0.31 0.30 0.29 0.34 0.35 0.28 0.26 0.22
0.77 0.44 0.48 0.26 0.20 0.12 0.18 0.17 0.17 0.18 0.21 0.34 0.55 0.56 0.74 0.77 0.75 0.82 0.87 0.84 0.74 0.60 0.51 0.43 0.38 0.35 0.32 0.28 0.28 0.32 0.31 0.32 0.39 0.35 0.32 0.35 0.32 0.26 0.23 0.22 0.32 0.25 0.23
0.98 0.95 0.56 0.36 0.21 0.16 0.25 0.24 0.18 0.10 0.15 0.12 0.18 0.31 0.44 0.82 0.90 0.70 0.81 0.84 0.92 0.98 0.81 0.67 0.54 0.39 0.35 0.33 0.33 0.37 0.35 0.34 0.32 0.34 0.47 0.48 0.40 0.35 0.30 0.34 0.33 0.17 0.15
1.24 1.07 0.68 0.50 0.32 0.20 0.24 0.24 0.28 0.08 0.14 0.17 0.12 0.11 0.18 0.31 0.68 0.78 0.73 0.87 0.92 0.94 1.06 0.94 0.79 0.75 0.69 0.64 0.46 0.40 0.46 0.50 0.52 0.50 0.45 0.40 0.31 0.28 0.24 0.24 0.32 0.16 0.14
0.87 1.02 0.94 0.63 0.49 0.38 0.35 0.31 0.25 0.05 0.04 0.08 0.13 0.16 0.16 0.09 0.26 0.40 0.38 0.47 0.63 0.81 0.94 1.00 0.90 0.77 0.83 1.00 0.75 0.59 0.62 0.49 0.51 0.43 0.31 0.25 0.26 0.27 0.27 0.24 0.23 0.19 0.14
1.14 0.97 0.99 0.95 0.95 0.71 0.72 0.57 0.44 0.18 0.13 0.09 0.08 0.16 0.27 0.19 0.24 0.18 0.15 0.20 0.27 0.39 0.53 0.64 0.67 0.72 0.72 0.76 0.76 0.60 0.59 0.57 0.49 0.43 0.29 0.23 0.23 0.20 0.24 0.21 0.13 0.12 0.09

GFSMA_prec_precacc24_114.txt.gz
Total_Precipitation_Accumulation
0.00 0.00 0.00 0.00 0.00 0.01 0.01 0.03 0.04 0.04 0.11 0.21 0.38 0.49 0.48 0.33 0.36 0.37 0.40 0.52 0.85 1.15 0.75 0.97 0.66 0.63 0.70 0.83 0.84 0.66 0.37 0.31 0.11 0.01 0.00 0.00 0.00 0.00 0.00 0.00 0.00 0.00 0.00
0.01 0.00 0.01 0.01 0.00 0.00 0.01 0.02 0.03 0.06 0.10 0.23 0.42 0.53 0.57 0.46 0.41 0.45 0.28 0.29 0.35 0.86 1.23 0.83 1.14 0.60 0.49 0.54 0.88 0.76 0.48 0.34 0.16 0.02 0.00 0.01 0.01 0.00 0.00 0.00 0.00 0.00 0.00
0.06 0.03 0.01 0.01 0.01 0.01 0.01 0.02 0.03 0.07 0.07 0.12 0.30 0.46 0.55 0.53 0.50 0.50 0.41 0.21 0.19 0.34 1.60 1.42 1.47 0.72 0.76 0.68 0.77 1.09 0.95 0.76 0.27 0.04 0.01 0.00 0.01 0.01 0.01 0.00 0.01 0.01 0.00
0.27 0.37 0.24 0.08 0.04 0.03 0.02 0.02 0.02 0.03 0.04 0.09 0.13 0.30 0.47 0.55 0.56 0.63 0.62 0.42 0.34 0.26 0.85 1.78 1.93 1.98 1.06 1.08 1.14 1.11 1.27 0.96 0.59 0.11 0.02 0.01 0.01 0.01 0.01 0.01 0.00 0.00 0.00
0.22 0.26 0.27 0.28 0.22 0.14 0.04 0.01 0.01 0.02 0.02 0.04 0.07 0.10 0.32 0.49 0.58 0.62 0.69 0.58 0.59 0.53 0.41 0.96 1.14 1.48 1.64 1.25 1.37 1.23 1.07 1.14 0.83 0.24 0.12 0.04 0.01 0.02 0.01 0.01 0.01 0.00 0.00
0.07 0.14 0.13 0.10 0.31 0.36 0.24 0.15 0.06 0.03 0.02 0.05 0.08 0.08 0.18 0.30 0.45 0.55 0.64 0.66 0.61 0.85 0.57 0.71 0.42 0.51 0.65 0.85 1.01 0.88 0.70 0.53 0.45 0.27 0.17 0.07 0.04 0.02 0.02 0.01 0.00 0.00 0.00
0.13 0.02 0.03 0.05 0.13 0.16 0.12 0.25 0.36 0.25 0.16 0.12 0.17 0.21 0.30 0.24 0.26 0.39 0.51 0.47 0.68 0.66 0.80 0.91 0.44 0.27 0.23 0.37 0.47 0.71 0.54 0.35 0.23 0.18 0.15 0.09 0.05 0.02 0.01 0.01 0.00 0.01 0.01
0.17 0.10 0.08 0.08 0.12 0.24 0.34 0.33 0.59 0.63 0.42 0.34 0.31 0.27 0.38 0.44 0.43 0.35 0.34 0.37 0.41 0.51 0.55 1.10 1.05 0.41 0.23 0.18 0.31 0.38 0.43 0.46 0.28 0.16 0.11 0.07 0.04 0.01 0.01 0.01 0.01 0.01 0.01
0.21 0.16 0.12 0.18 0.37 0.77 0.94 1.06 1.18 1.19 0.94 0.83 0.70 0.72 0.47 0.29 0.24 0.31 0.33 0.28 0.33 0.33 0.29 0.53 1.12 0.77 0.47 0.26 0.23 0.30 0.30 0.41 0.51 0.26 0.10 0.03 0.01 0.01 0.00 0.01 0.01 0.01 0.02
0.69 0.58 0.36 0.40 0.37 0.44 0.53 0.69 0.86 1.02 1.18 1.22 1.36 1.41 0.95 0.36 0.17 0.21 0.29 0.32 0.23 0.21 0.24 0.24 0.53 0.91 0.70 0.49 0.31 0.18 0.23 0.31 0.48 0.67 0.21 0.04 0.01 0.01 0.01 0.01 0.01 0.02 0.02
0.28 0.53 0.60 0.51 0.48 0.43 0.34 0.34 0.27 0.24 0.23 0.33 0.29 0.32 0.46 0.31 0.27 0.22 0.26 0.28 0.28 0.16 0.09 0.12 0.20 0.44 0.71 0.77 0.47 0.33 0.19 0.23 0.46 0.52 0.61 0.17 0.02 0.01 0.01 0.01 0.01 0.01 0.02
0.15 0.22 0.44 0.36 0.38 0.49 0.46 0.55 0.61 0.46 0.31 0.23 0.24 0.16 0.15 0.15 0.17 0.23 0.26 0.23 0.24 0.23 0.20 0.14 0.06 0.11 0.27 0.59 0.73 0.52 0.39 0.25 0.33 0.55 0.52 0.31 0.06 0.02 0.01 0.01 0.01 0.02 0.02
0.31 0.32 0.44 0.39 0.31 0.36 0.37 0.38 0.53 0.80 0.86 0.53 0.42 0.32 0.24 0.20 0.25 0.34 0.44 0.40 0.28 0.20 0.24 0.22 0.15 0.09 0.10 0.18 0.32 0.52 0.58 0.40 0.35 0.41 0.52 0.37 0.10 0.01 0.01 0.01 0.01 0.02 0.02
0.11 0.31 0.63 0.61 0.48 0.42 0.47 0.60 0.64 0.68 0.93 1.12 0.59 0.41 0.27 0.27 0.34 0.30 0.31 0.40 0.34 0.24 0.12 0.08 0.08 0.10 0.10 0.09 0.12 0.19 0.35 0.46 0.35 0.28 0.32 0.30 0.12 0.02 0.00 0.00 0.00 0.01 0.03
0.20 0.22 0.18 0.39 0.49 0.47 0.39 0.48 0.51 0.47 0.49 0.77 0.68 0.53 0.47 0.34 0.36 0.35 0.29 0.24 0.22 0.25 0.17 0.09 0.05 0.03 0.04 0.07 0.08 0.06 0.07 0.17 0.26 0.23 0.16 0.17 0.15 0.05 0.00 0.00 0.00 0.00 0.01
0.31 0.30 0.22 0.39 0.45 0.56 0.55 0.35 0.36 0.48 0.60 0.77 1.06 0.95 0.63 0.37 0.36 0.38 0.36 0.31 0.26 0.20 0.21 0.15 0.09 0.04 0.07 0.07 0.06 0.05 0.04 0.07 0.09 0.14 0.15 0.13 0.14 0.10 0.04 0.01 0.01 0.01 0.00
0.47 0.40 0.38 0.48 0.39 0.49 0.64 0.66 0.56 0.69 0.83 0.92 1.11 0.91 0.63 0.50 0.53 0.47 0.44 0.39 0.30 0.23 0.20 0.23 0.12 0.09 0.10 0.13 0.13 0.11 0.06 0.04 0.04 0.06 0.09 0.10 0.11 0.10 0.05 0.01 0.00 0.00 0.00
0.47 0.58 0.46 0.51 0.47 0.43 0.51 0.88 0.97 0.90 0.83 0.97 1.24 1.26 1.01 0.76 0.59 0.57 0.49 0.42 0.34 0.30 0.21 0.21 0.18 0.12 0.09 0.08 0.14 0.18 0.21 0.19 0.08 0.06 0.04 0.06 0.08 0.08 0.05 0.02 0.01 0.00 0.00
0.29 0.53 0.60 0.63 0.70 0.51 0.40 0.36 0.70 1.02 0.92 0.88 0.98 1.28 1.14 0.94 0.80 0.80 0.73 0.53 0.40 0.32 0.36 0.30 0.22 0.13 0.10 0.10 0.20 0.34 0.30 0.14 0.06 0.11 0.06 0.04 0.06 0.10 0.08 0.04 0.05 0.04 0.03
0.17 0.25 0.46 0.56 0.81 0.84 0.81 0.66 0.63 0.63 0.91 0.88 0.87 0.81 0.96 0.94 0.72 0.65 0.63 0.66 0.65 0.52 0.37 0.38 0.32 0.24 0.19 0.20 0.32 0.25 0.19 0.16 0.13 0.11 0.11 0.12 0.18 0.22 0.22 0.15 0.12 0.12 0.12
0.38 0.29 0.25 0.29 0.60 0.95 0.59 0.49 0.45 0.69 0.79 0.85 0.70 0.72 0.70 0.87 0.81 0.76 0.71 0.58 0.52 0.51 0.48 0.44 0.41 0.39 0.36 0.38 0.41 0.32 0.28 0.25 0.33 0.38 0.24 0.20 0.20 0.22 0.26 0.26 0.21 0.19 0.16
0.78 0.52 0.55 0.37 0.28 0.48 0.73 0.49 0.50 0.44 0.62 0.65 0.62 0.59 0.78 0.74 0.77 0.89 0.96 0.99 0.89 0.72 0.56 0.43 0.38 0.35 0.30 0.25 0.28 0.34 0.34 0.40 0.49 0.39 0.36 0.45 0.40 0.36 0.33 0.30 0.38 0.30 0.28
0.97 0.97 0.63 0.50 0.39 0.34 0.70 0.55 0.62 0.71 0.61 0.39 0.35 0.44 0.44 0.78 0.92 0.73 0.89 0.94 1.05 1.04 0.83 0.68 0.53 0.37 0.32 0.30 0.29 0.30 0.28 0.28 0.29 0.35 0.53 0.67 0.58 0.53 0.51 0.54 0.51 0.33 0.28
1.27 1.12 0.78 0.60 0.43 0.42 0.45 0.73 0.77 0.69 0.70 0.53 0.39 0.23 0.25 0.33 0.71 0.87 0.87 0.91 0.91 0.91 1.00 0.86 0.72 0.68 0.64 0.65 0.47 0.46 0.60 0.68 0.70 0.71 0.67 0.62 0.52 0.52 0.44 0.42 0.58 0.40 0.37
0.89 1.06 0.98 0.67 0.57 0.54 0.65 0.64 0.69 0.55 0.75 0.64 0.46 0.39 0.30 0.21 0.33 0.49 0.48 0.58 0.63 0.80 0.92 1.00 0.92 0.81 0.92 1.21 0.94 0.74 0.82 0.70 0.81 0.77 0.65 0.50 0.45 0.47 0.48 0.41 0.40 0.38 0.31
1.13 0.94 0.89 0.87 0.90 0.79 0.86 0.84 0.87 0.64 0.52 0.60 0.47 0.38 0.45 0.37 0.38 0.31 0.23 0.28 0.34 0.40 0.53 0.64 0.68 0.74 0.77 0.90 0.89 0.64 0.65 0.73 0.70 0.67 0.46 0.39 0.43 0.41 0.49 0.42 0.28 0.27 0.24

GFSMA_prec_precacc24_117.txt.gz
Total_Precipitation_Accumulation
0.00 0.00 0.00 0.00 0.00 0.01 0.01 0.03 0.04 0.04 0.06 0.08 0.13 0.20 0.30 0.27 0.32 0.35 0.38 0.50 0.74 1.10 0.75 0.98 0.69 0.69 0.74 0.85 0.83 0.66 0.45 0.51 0.30 0.21 0.14 0.05 0.01 0.00 0.00 0.00 0.00 0.00 0.00
0.00 0.00 0.01 0.00 0.00 0.00 0.01 0.02 0.03 0.06 0.09 0.11 0.15 0.31 0.44 0.38 0.38 0.41 0.28 0.29 0.34 0.84 1.23 0.84 1.15 0.63 0.51 0.56 0.87 0.77 0.51 0.47 0.38 0.23 0.09 0.02 0.01 0.01 0.00 0.00 0.00 0.00 0.00
0.07 0.04 0.01 0.01 0.03 0.03 0.04 0.03 0.03 0.07 0.07 0.07 0.08 0.28 0.47 0.48 0.47 0.44 0.39 0.21 0.19 0.34 1.60 1.42 1.47 0.74 0.78 0.70 0.77 1.10 0.99 0.87 0.46 0.30 0.09 0.01 0.03 0.02 0.00 0.00 0.01 0.01 0.00
0.35 0.50 0.37 0.20 0.15 0.26 0.22 0.10 0.06 0.04 0.03 0.05 0.06 0.17 0.38 0.51 0.53 0.57 0.59 0.42 0.34 0.26 0.85 1.78 1.93 1.99 1.09 1.09 1.15 1.12 1.32 1.06 0.83 0.53 0.23 0.02 0.01 0.04 0.01 0.01 0.00 0.00 0.00
0.44 0.43 0.44 0.54 0.50 0.44 0.34 0.22 0.15 0.09 0.04 0.04 0.04 0.06 0.27 0.45 0.54 0.59 0.67 0.58 0.59 0.53 0.41 0.96 1.14 1.48 1.65 1.26 1.41 1.28 1.13 1.20 0.95 0.65 0.45 0.15 0.01 0.04 0.01 0.01 0.01 0.00 0.00
0.10 0.17 0.21 0.33 0.61 0.68 0.61 0.55 0.31 0.20 0.16 0.15 0.12 0.07 0.14 0.29 0.43 0.51 0.63 0.66 0.61 0.85 0.57 0.71 0.42 0.51 0.66 0.87 1.03 0.91 0.74 0.55 0.52 0.64 0.58 0.29 0.05 0.03 0.02 0.01 0.00 0.00 0.00
0.13 0.02 0.03 0.09 0.23 0.26 0.23 0.41 0.63 0.56 0.51 0.45 0.36 0.32 0.26 0.25 0.35 0.45 0.56 0.52 0.70 0.66 0.80 0.91 0.44 0.27 0.22 0.37 0.48 0.73 0.56 0.38 0.24 0.24 0.40 0.38 0.16 0.06 0.01 0.01 0.00 0.01 0.01
0.17 0.10 0.07 0.07 0.11 0.24 0.35 0.34 0.64 0.71 0.54 0.58 0.74 0.56 0.40 0.31 0.42 0.54 0.55 0.51 0.46 0.53 0.56 1.10 1.05 0.41 0.23 0.18 0.31 0.38 0.46 0.51 0.34 0.21 0.19 0.18 0.15 0.07 0.02 0.01 0.01 0.01 0.01
0.21 0.16 0.11 0.16 0.36 0.76 0.93 1.04 1.16 1.25 0.97 0.88 0.83 0.89 0.77 0.69 0.73 0.80 0.83 0.61 0.42 0.36 0.31 0.54 1.12 0.77 0.47 0.26 0.23 0.30 0.30 0.44 0.60 0.36 0.16 0.10 0.11 0.05 0.02 0.01 0.01 0.01 0.02
0.69 0.58 0.35 0.38 0.35 0.43 0.50 0.65 0.82 0.99 1.21 1.23 1.36 1.38 1.17 0.98 0.71 0.55 0.65 0.72 0.37 0.24 0.24 0.25 0.53 0.91 0.70 0.49 0.31 0.18 0.23 0.32 0.49 0.75 0.40 0.15 0.15 0.05 0.02 0.01 0.01 0.02 0.02
0.28 0.53 0.59 0.50 0.47 0.42 0.33 0.32 0.24 0.22 0.23 0.34 0.30 0.27 0.38 0.33 0.27 0.23 0.22 0.28 0.31 0.17 0.09 0.12 0.20 0.44 0.71 0.77 0.47 0.33 0.19 0.24 0.47 0.54 0.80 0.40 0.15 0.08 0.03 0.01 0.01 0.01 0.02
0.15 0.22 0.44 0.36 0.37 0.49 0.45 0.53 0.59 0.45 0.30 0.22 0.20 0.16 0.12 0.09 0.07 0.14 0.20 0.22 0.25 0.23 0.20 0.14 0.06 0.11 0.27 0.59 0.73 0.53 0.39 0.25 0.33 0.55 0.55 0.81 0.51 0.15 0.07 0.02 0.01 0.02 0.02
0.31 0.31 0.44 0.39 0.30 0.35 0.36 0.36 0.52 0.80 0.86 0.50 0.34 0.29 0.23 0.17 0.18 0.25 0.38 0.38 0.29 0.20 0.24 0.22 0.15 0.09 0.10 0.18 0.33 0.52 0.59 0.40 0.36 0.43 0.53 0.50 0.64 0.55 0.20 0.08 0.04 0.02 0.02
0.11 0.31 0.63 0.60 0.48 0.41 0.45 0.59 0.63 0.67 0.89 1.03 0.49 0.32 0.26 0.23 0.29 0.27 0.29 0.36 0.32 0.23 0.12 0.08 0.08 0.10 0.10 0.09 0.13 0.20 0.35 0.47 0.37 0.47 0.51 0.52 0.48 0.46 0.35 0.21 0.05 0.01 0.03
0.20 0.22 0.18 0.39 0.48 0.46 0.37 0.45 0.45 0.41 0.43 0.64 0.58 0.39 0.42 0.30 0.34 0.37 0.32 0.29 0.26 0.25 0.17 0.09 0.05 0.03 0.04 0.07 0.08 0.07 0.07 0.17 0.27 0.27 0.34 0.57 0.49 0.50 0.37 0.22 0.07 0.01 0.00
0.31 0.30 0.22 0.39 0.45 0.56 0.54 0.33 0.25 0.32 0.37 0.57 0.85 0.78 0.52 0.31 0.34 0.45 0.43 0.39 0.34 0.24 0.21 0.15 0.09 0.04 0.07 0.08 0.07 0.06 0.04 0.07 0.10 0.18 0.22 0.26 0.47 0.50 0.40 0.19 0.05 0.00 0.00
0.47 0.40 0.38 0.48 0.39 0.49 0.65 0.64 0.44 0.54 0.59 0.71 0.91 0.71 0.48 0.47 0.51 0.57 0.62 0.54 0.40 0.32 0.25 0.22 0.11 0.09 0.10 0.13 0.14 0.11 0.06 0.04 0.04 0.06 0.12 0.19 0.23 0.30 0.37 0.20 0.07 0.02 0.00
0.47 0.58 0.46 0.51 0.47 0.43 0.51 0.85 0.81 0.64 0.59 0.77 1.07 1.14 0.86 0.69 0.63 0.63 0.62 0.55 0.39 0.40 0.39 0.31 0.20 0.13 0.09 0.08 0.14 0.18 0.21 0.19 0.09 0.06 0.04 0.10 0.17 0.18 0.22 0.26 0.16 0.09 0.04
0.29 0.52 0.59 0.63 0.70 0.51 0.40 0.34 0.60 0.83 0.67 0.70 0.82 1.07 0.96 0.84 0.73 0.74 0.70 0.55 0.46 0.37 0.41 0.37 0.28 0.18 0.11 0.10 0.20 0.34 0.30 0.14 0.06 0.13 0.08 0.06 0.12 0.20 0.20 0.18 0.26 0.16 0.06
0.16 0.24 0.46 0.56 0.81 0.84 0.79 0.62 0.57 0.50 0.72 0.70 0.67 0.60 0.78 0.82 0.63 0.56 0.56 0.63 0.67 0.58 0.41 0.43 0.37 0.26 0.18 0.19 0.31 0.25 0.19 0.16 0.13 0.11 0.12 0.14 0.22 0.28 0.34 0.31 0.24 0.25 0.12
0.38 0.28 0.25 0.28 0.59 0.95 0.60 0.47 0.38 0.58 0.62 0.72 0.78 0.83 0.72 0.90 0.87 0.76 0.65 0.52 0.52 0.58 0.61 0.51 0.47 0.41 0.35 0.36 0.41 0.32 0.28 0.23 0.30 0.36 0.23 0.19 0.21 0.23 0.28 0.34 0.40 0.46 0.31
0.78 0.52 0.55 0.37 0.27 0.49 0.73 0.50 0.50 0.44 0.63 0.75 0.75 0.73 1.13 1.32 0.95 0.89 0.90 0.90 0.81 0.67 0.59 0.58 0.51 0.41 0.33 0.26 0.30 0.35 0.34 0.40 0.48 0.35 0.33 0.42 0.38 0.34 0.30 0.28 0.38 0.34 0.43
0.97 0.96 0.63 0.50 0.39 0.35 0.71 0.54 0.64 0.75 0.63 0.47 0.59 0.67 0.65 1.18 1.34 0.93 0.86 0.93 1.13 1.23 1.02 0.82 0.62 0.48 0.40 0.31 0.29 0.29 0.27 0.26 0.26 0.31 0.49 0.64 0.56 0.51 0.50 0.55 0.54 0.37 0.33
1.27 1.12 0.79 0.61 0.44 0.45 0.48 0.76 0.81 0.76 0.75 0.56 0.46 0.50 0.58 0.60 0.92 0.90 0.88 0.98 0.98 1.10 1.28 1.12 0.92 0.76 0.68 0.64 0.46 0.43 0.57 0.65 0.67 0.69 0.66 0.64 0.55 0.54 0.46 0.44 0.64 0.47 0.45
0.89 1.06 0.98 0.67 0.60 0.60 0.74 0.75 0.78 0.66 0.83 0.73 0.57 0.58 0.49 0.44 0.49 0.66 0.55 0.81 0.87 0.94 1.11 1.12 0.96 0.84 0.92 1.23 0.95 0.75 0.82 0.71 0.83 0.79 0.67 0.52 0.48 0.50 0.52 0.46 0.45 0.48 0.43
1.09 0.92 0.88 0.86 0.89 0.81 0.89 0.87 0.93 0.74 0.63 0.76 0.67 0.62 0.79 0.66 0.62 0.50 0.34 0.40 0.66 0.70 0.65 0.81 0.81 0.75 0.77 0.90 0.92 0.66 0.66 0.74 0.72 0.71 0.49 0.43 0.47 0.46 0.55 0.47 0.34 0.34 0.34

GFSMA_prec_precacc24_120.txt.gz
Total_Precipitation_Accumulation
0.05 0.05 0.01 0.02 0.02 0.01 0.01 0.03 0.04 0.04 0.06 0.08 0.10 0.09 0.09 0.06 0.13 0.20 0.26 0.36 0.57 0.79 0.69 0.98 0.68 0.68 0.74 0.85 0.85 0.71 0.51 0.57 0.39 0.33 0.25 0.20 0.20 0.14 0.01 0.00 0.00 0.00 0.00
0.03 0.03 0.02 0.02 0.03 0.02 0.09 0.03 0.03 0.06 0.09 0.10 0.09 0.07 0.09 0.11 0.18 0.22 0.24 0.26 0.31 0.63 1.07 0.80 1.14 0.63 0.51 0.57 0.86 0.76 0.55 0.54 0.48 0.35 0.20 0.13 0.13 0.18 0.08 0.01 0.00 0.00 0.00
0.10 0.05 0.02 0.01 0.03 0.08 0.22 0.10 0.09 0.10 0.08 0.08 0.05 0.05 0.07 0.17 0.28 0.26 0.31 0.20 0.19 0.32 1.52 1.39 1.45 0.72 0.78 0.71 0.77 1.10 0.99 0.89 0.51 0.41 0.24 0.11 0.12 0.19 0.11 0.02 0.00 0.00 0.00
0.43 0.55 0.40 0.21 0.15 0.39 0.45 0.20 0.16 0.16 0.10 0.09 0.07 0.06 0.09 0.22 0.35 0.42 0.45 0.36 0.31 0.26 0.85 1.77 1.92 1.98 1.08 1.09 1.15 1.12 1.32 1.06 0.85 0.59 0.33 0.10 0.05 0.15 0.08 0.03 0.00 0.00 0.00
0.49 0.51 0.53 0.63 0.64 0.70 0.63 0.55 0.40 0.27 0.14 0.13 0.15 0.12 0.13 0.23 0.37 0.49 0.54 0.45 0.55 0.52 0.41 0.96 1.14 1.48 1.65 1.26 1.41 1.28 1.13 1.20 0.96 0.68 0.55 0.26 0.06 0.16 0.07 0.03 0.01 0.00 0.00
0.10 0.17 0.22 0.37 0.70 0.84 0.86 0.95 0.71 0.47 0.34 0.33 0.32 0.23 0.21 0.29 0.38 0.51 0.63 0.67 0.65 0.91 0.60 0.73 0.42 0.51 0.66 0.86 1.03 0.92 0.74 0.56 0.53 0.66 0.65 0.45 0.18 0.16 0.10 0.03 0.00 0.00 0.00
0.13 0.02 0.03 0.09 0.23 0.28 0.31 0.63 0.91 0.85 0.70 0.73 0.81 0.61 0.38 0.33 0.43 0.50 0.63 0.69 0.88 0.82 0.91 0.97 0.46 0.27 0.22 0.37 0.48 0.73 0.55 0.37 0.26 0.27 0.44 0.50 0.41 0.19 0.10 0.03 0.01 0.01 0.01
0.17 0.10 0.07 0.07 0.11 0.23 0.35 0.34 0.65 0.76 0.70 0.85 1.04 0.83 0.53 0.42 0.40 0.47 0.60 0.67 0.65 0.70 0.67 1.18 1.08 0.42 0.23 0.18 0.31 0.38 0.45 0.50 0.35 0.23 0.19 0.22 0.26 0.24 0.09 0.03 0.01 0.01 0.01
0.20 0.16 0.11 0.16 0.36 0.76 0.92 1.03 1.14 1.22 0.97 0.91 0.98 1.07 0.86 0.72 0.71 0.64 0.68 0.62 0.65 0.59 0.42 0.62 1.15 0.78 0.47 0.26 0.23 0.30 0.30 0.43 0.59 0.39 0.18 0.12 0.13 0.11 0.07 0.02 0.01 0.01 0.02
0.66 0.57 0.35 0.37 0.35 0.43 0.50 0.64 0.79 0.94 1.15 1.20 1.34 1.42 1.22 0.99 0.69 0.48 0.50 0.59 0.53 0.39 0.30 0.26 0.54 0.91 0.70 0.49 0.31 0.18 0.23 0.32 0.49 0.76 0.46 0.18 0.18 0.08 0.06 0.03 0.01 0.02 0.02
0.25 0.51 0.58 0.49 0.47 0.42 0.33 0.30 0.21 0.18 0.19 0.29 0.28 0.26 0.38 0.33 0.26 0.19 0.11 0.12 0.21 0.15 0.08 0.12 0.20 0.44 0.71 0.77 0.47 0.33 0.19 0.24 0.47 0.54 0.81 0.47 0.27 0.20 0.08 0.02 0.02 0.01 0.02
0.14 0.21 0.43 0.35 0.37 0.48 0.44 0.52 0.56 0.41 0.27 0.19 0.17 0.15 0.12 0.08 0.05 0.05 0.05 0.05 0.11 0.14 0.18 0.14 0.06 0.11 0.27 0.59 0.73 0.53 0.39 0.25 0.33 0.55 0.55 0.81 0.56 0.31 0.20 0.07 0.02 0.02 0.02
0.30 0.31 0.43 0.38 0.29 0.35 0.35 0.35 0.51 0.77 0.83 0.47 0.33 0.28 0.22 0.16 0.15 0.14 0.19 0.15 0.13 0.14 0.22 0.22 0.15 0.10 0.10 0.18 0.33 0.52 0.59 0.40 0.36 0.43 0.53 0.50 0.65 0.60 0.32 0.17 0.08 0.04 0.03
0.11 0.31 0.63 0.60 0.47 0.40 0.44 0.57 0.61 0.66 0.87 1.02 0.49 0.32 0.24 0.18 0.24 0.20 0.18 0.22 0.20 0.18 0.12 0.08 0.08 0.10 0.11 0.10 0.13 0.20 0.35 0.47 0.37 0.47 0.51 0.52 0.49 0.54 0.57 0.37 0.18 0.12 0.08
0.20 0.22 0.18 0.39 0.48 0.45 0.36 0.44 0.44 0.39 0.41 0.62 0.56 0.38 0.38 0.26 0.26 0.23 0.24 0.25 0.22 0.17 0.14 0.09 0.05 0.03 0.04 0.07 0.09 0.07 0.07 0.18 0.28 0.28 0.34 0.57 0.50 0.53 0.54 0.55 0.47 0.24 0.16
0.31 0.30 0.22 0.38 0.44 0.55 0.53 0.32 0.24 0.30 0.33 0.51 0.76 0.70 0.46 0.25 0.27 0.34 0.33 0.38 0.33 0.23 0.19 0.15 0.10 0.05 0.08 0.08 0.08 0.06 0.04 0.08 0.10 0.18 0.23 0.27 0.49 0.55 0.53 0.49 0.51 0.51 0.30
0.47 0.39 0.38 0.47 0.39 0.49 0.65 0.64 0.43 0.52 0.53 0.56 0.73 0.55 0.37 0.38 0.35 0.43 0.52 0.52 0.42 0.38 0.27 0.20 0.13 0.12 0.13 0.13 0.14 0.11 0.06 0.04 0.04 0.07 0.13 0.20 0.25 0.43 0.57 0.52 0.43 0.43 0.39
0.47 0.58 0.46 0.51 0.47 0.43 0.51 0.85 0.81 0.62 0.53 0.68 0.90 0.91 0.61 0.56 0.49 0.49 0.58 0.54 0.45 0.44 0.48 0.37 0.29 0.24 0.16 0.11 0.14 0.18 0.20 0.19 0.08 0.05 0.03 0.10 0.19 0.24 0.41 0.63 0.53 0.37 0.29
0.28 0.52 0.59 0.63 0.70 0.51 0.40 0.34 0.60 0.78 0.54 0.51 0.71 0.91 0.82 0.69 0.58 0.66 0.69 0.54 0.45 0.39 0.42 0.46 0.39 0.30 0.21 0.15 0.22 0.34 0.29 0.14 0.07 0.13 0.08 0.07 0.14 0.24 0.27 0.35 0.56 0.50 0.25
0.16 0.24 0.46 0.55 0.81 0.84 0.79 0.61 0.57 0.48 0.63 0.51 0.48 0.54 0.66 0.73 0.47 0.44 0.49 0.57 0.61 0.54 0.39 0.42 0.41 0.36 0.27 0.22 0.33 0.25 0.17 0.16 0.14 0.11 0.12 0.14 0.22 0.33 0.49 0.42 0.36 0.41 0.37
0.38 0.28 0.25 0.29 0.59 0.95 0.60 0.46 0.34 0.54 0.57 0.59 0.58 0.60 0.51 0.65 0.66 0.57 0.54 0.44 0.47 0.56 0.58 0.46 0.43 0.38 0.37 0.38 0.41 0.30 0.23 0.21 0.29 0.35 0.24 0.19 0.21 0.30 0.42 0.62 0.63 0.60 0.54
0.78 0.52 0.55 0.37 0.27 0.49 0.73 0.49 0.48 0.39 0.58 0.67 0.60 0.51 0.81 1.03 0.69 0.62 0.74 0.77 0.71 0.61 0.52 0.52 0.45 0.34 0.26 0.21 0.25 0.31 0.28 0.34 0.43 0.32 0.33 0.43 0.37 0.33 0.33 0.32 0.54 0.56 0.69
0.97 0.96 0.63 0.50 0.40 0.35 0.70 0.53 0.62 0.74 0.60 0.47 0.57 0.59 0.46 0.86 1.12 0.94 0.91 0.96 1.13 1.19 0.94 0.75 0.55 0.43 0.37 0.31 0.30 0.30 0.27 0.26 0.26 0.30 0.48 0.63 0.54 0.48 0.45 0.49 0.50 0.37 0.36
1.27 1.12 0.79 0.61 0.44 0.45 0.47 0.75 0.79 0.77 0.73 0.55 0.50 0.56 0.59 0.62 1.01 1.02 0.91 0.97 1.03 1.19 1.39 1.20 0.94 0.74 0.71 0.72 0.52 0.48 0.59 0.63 0.62 0.62 0.59 0.59 0.51 0.51 0.44 0.43 0.63 0.47 0.45
0.87 1.06 0.98 0.68 0.60 0.60 0.73 0.74 0.78 0.70 0.90 0.78 0.62 0.62 0.53 0.53 0.67 0.93 0.88 0.98 0.94 0.97 1.20 1.28 1.23 1.13 1.16 1.42 1.08 0.82 0.89 0.76 0.84 0.77 0.66 0.51 0.47 0.51 0.52 0.47 0.47 0.50 0.44
1.03 0.90 0.86 0.86 0.89 0.81 0.88 0.85 0.91 0.75 0.63 0.78 0.71 0.66 0.83 0.78 0.75 0.69 0.66 0.69 0.82 0.78 0.79 0.96 0.96 0.96 1.03 1.20 1.23 0.83 0.73 0.78 0.73 0.71 0.50 0.45 0.48 0.46 0.55 0.48 0.34 0.35 0.37

GFSMA_prec_precacc24_123.txt.gz
Total_Precipitation_Accumulation
0.08 0.09 0.05 0.04 0.05 0.01 0.01 0.02 0.02 0.03 0.06 0.08 0.10 0.09 0.09 0.06 0.10 0.15 0.12 0.11 0.27 0.38 0.56 0.98 0.74 0.70 0.71 0.83 0.85 0.75 0.62 0.62 0.42 0.39 0.33 0.27 0.24 0.22 0.13 0.02 0.00 0.00 0.00
0.08 0.06 0.04 0.04 0.06 0.06 0.13 0.05 0.02 0.05 0.09 0.10 0.09 0.07 0.09 0.09 0.10 0.11 0.09 0.08 0.10 0.32 0.71 0.70 1.19 0.71 0.53 0.56 0.89 0.77 0.58 0.57 0.54 0.41 0.24 0.18 0.20 0.23 0.15 0.06 0.00 0.00 0.00
0.16 0.13 0.11 0.05 0.05 0.11 0.28 0.12 0.10 0.12 0.08 0.08 0.04 0.05 0.06 0.07 0.06 0.07 0.11 0.07 0.08 0.20 1.30 1.08 1.41 0.78 0.84 0.77 0.83 1.13 1.02 0.90 0.51 0.42 0.27 0.16 0.19 0.26 0.14 0.05 0.00 0.00 0.00
0.49 0.63 0.49 0.33 0.20 0.43 0.49 0.21 0.17 0.20 0.14 0.10 0.07 0.06 0.08 0.14 0.11 0.11 0.20 0.17 0.22 0.22 0.80 1.66 1.83 1.97 1.09 1.13 1.20 1.15 1.35 1.09 0.86 0.59 0.33 0.13 0.12 0.24 0.15 0.08 0.01 0.00 0.00
0.49 0.52 0.56 0.69 0.73 0.77 0.70 0.65 0.58 0.32 0.21 0.13 0.15 0.11 0.12 0.19 0.17 0.19 0.23 0.26 0.40 0.45 0.37 0.94 1.11 1.48 1.65 1.26 1.44 1.31 1.15 1.23 0.97 0.69 0.55 0.28 0.12 0.27 0.16 0.08 0.02 0.01 0.00
0.09 0.17 0.22 0.37 0.71 0.88 0.96 1.10 1.02 0.70 0.57 0.52 0.52 0.39 0.31 0.31 0.24 0.24 0.32 0.50 0.54 0.80 0.58 0.72 0.42 0.51 0.66 0.86 1.04 0.95 0.78 0.59 0.55 0.66 0.65 0.45 0.22 0.27 0.21 0.12 0.04 0.02 0.01
0.13 0.02 0.03 0.09 0.23 0.27 0.31 0.65 0.94 0.93 0.87 1.17 1.71 1.65 1.02 0.60 0.45 0.32 0.44 0.60 0.81 0.80 0.95 0.98 0.47 0.28 0.22 0.37 0.47 0.74 0.58 0.39 0.28 0.27 0.43 0.50 0.45 0.29 0.21 0.14 0.07 0.03 0.01
0.17 0.10 0.07 0.07 0.11 0.23 0.35 0.34 0.65 0.76 0.71 0.89 1.14 1.14 0.94 0.54 0.36 0.36 0.45 0.56 0.61 0.69 0.67 1.20 1.09 0.42 0.23 0.18 0.30 0.37 0.45 0.51 0.36 0.24 0.19 0.21 0.26 0.31 0.17 0.12 0.12 0.08 0.02
0.09 0.10 0.09 0.16 0.35 0.75 0.92 1.03 1.13 1.21 0.97 0.91 0.99 1.11 0.90 0.73 0.69 0.62 0.61 0.53 0.52 0.52 0.40 0.62 1.15 0.78 0.47 0.26 0.23 0.30 0.30 0.42 0.58 0.39 0.18 0.11 0.13 0.13 0.14 0.08 0.11 0.11 0.05
0.12 0.13 0.15 0.29 0.32 0.43 0.50 0.64 0.78 0.93 1.12 1.18 1.31 1.42 1.23 1.00 0.69 0.48 0.49 0.54 0.42 0.30 0.27 0.26 0.54 0.91 0.70 0.49 0.31 0.18 0.23 0.32 0.48 0.75 0.45 0.18 0.18 0.08 0.08 0.09 0.07 0.06 0.06
0.05 0.10 0.17 0.31 0.40 0.41 0.33 0.30 0.21 0.17 0.16 0.26 0.24 0.24 0.38 0.34 0.27 0.20 0.11 0.09 0.10 0.06 0.04 0.10 0.19 0.44 0.71 0.77 0.47 0.33 0.19 0.24 0.47 0.53 0.80 0.46 0.27 0.20 0.08 0.05 0.06 0.04 0.03
0.11 0.17 0.39 0.31 0.33 0.47 0.44 0.52 0.56 0.41 0.26 0.16 0.13 0.09 0.09 0.07 0.05 0.05 0.05 0.03 0.03 0.03 0.06 0.06 0.04 0.11 0.27 0.59 0.73 0.53 0.39 0.25 0.33 0.55 0.55 0.81 0.55 0.31 0.22 0.09 0.05 0.06 0.05
0.29 0.30 0.42 0.36 0.28 0.34 0.34 0.34 0.50 0.76 0.82 0.46 0.31 0.23 0.16 0.13 0.15 0.14 0.19 0.13 0.03 0.01 0.03 0.10 0.12 0.09 0.10 0.18 0.33 0.52 0.59 0.40 0.36 0.43 0.53 0.50 0.65 0.61 0.34 0.21 0.13 0.08 0.06
0.09 0.26 0.62 0.57 0.46 0.40 0.43 0.56 0.60 0.65 0.87 1.02 0.48 0.31 0.22 0.16 0.23 0.20 0.18 0.20 0.11 0.04 0.01 0.02 0.06 0.10 0.11 0.10 0.13 0.20 0.35 0.47 0.37 0.47 0.51 0.52 0.49 0.54 0.58 0.39 0.24 0.19 0.11
0.09 0.10 0.15 0.36 0.46 0.44 0.35 0.44 0.42 0.39 0.40 0.62 0.56 0.37 0.37 0.26 0.26 0.23 0.24 0.24 0.20 0.09 0.03 0.04 0.03 0.03 0.04 0.07 0.09 0.07 0.08 0.18 0.29 0.29 0.34 0.58 0.50 0.53 0.54 0.56 0.49 0.31 0.24
0.16 0.20 0.18 0.37 0.43 0.54 0.52 0.31 0.23 0.29 0.32 0.50 0.75 0.70 0.45 0.25 0.28 0.35 0.33 0.36 0.31 0.20 0.13 0.09 0.08 0.05 0.08 0.08 0.08 0.06 0.05 0.09 0.12 0.21 0.24 0.27 0.49 0.55 0.53 0.49 0.52 0.58 0.42
0.31 0.36 0.36 0.47 0.38 0.48 0.64 0.62 0.42 0.51 0.52 0.55 0.72 0.54 0.36 0.36 0.34 0.42 0.50 0.47 0.40 0.36 0.24 0.18 0.13 0.12 0.13 0.15 0.15 0.13 0.07 0.04 0.04 0.07 0.13 0.21 0.26 0.43 0.57 0.52 0.44 0.47 0.55
0.44 0.57 0.45 0.50 0.46 0.43 0.50 0.84 0.80 0.61 0.52 0.68 0.89 0.85 0.53 0.49 0.47 0.47 0.49 0.45 0.41 0.43 0.48 0.37 0.30 0.25 0.16 0.12 0.16 0.20 0.21 0.19 0.08 0.06 0.04 0.11 0.19 0.24 0.41 0.63 0.58 0.46 0.43
0.28 0.52 0.59 0.63 0.70 0.51 0.39 0.34 0.60 0.78 0.54 0.51 0.69 0.87 0.74 0.60 0.54 0.64 0.62 0.44 0.36 0.35 0.43 0.47 0.39 0.33 0.31 0.24 0.27 0.36 0.29 0.13 0.06 0.13 0.08 0.06 0.13 0.23 0.26 0.34 0.61 0.66 0.48
0.16 0.24 0.46 0.55 0.81 0.84 0.79 0.61 0.56 0.48 0.63 0.51 0.46 0.45 0.58 0.64 0.43 0.40 0.43 0.51 0.56 0.50 0.38 0.39 0.39 0.36 0.29 0.30 0.49 0.36 0.19 0.14 0.12 0.10 0.10 0.12 0.19 0.31 0.48 0.42 0.37 0.50 0.66
0.38 0.29 0.25 0.29 0.60 0.95 0.60 0.46 0.34 0.54 0.57 0.59 0.56 0.56 0.43 0.57 0.56 0.49 0.48 0.34 0.39 0.55 0.59 0.45 0.42 0.42 0.37 0.37 0.40 0.33 0.26 0.20 0.24 0.31 0.20 0.14 0.17 0.27 0.41 0.69 0.71 0.67 0.66
0.76 0.51 0.55 0.37 0.27 0.49 0.73 0.49 0.48 0.39 0.56 0.65 0.58 0.44 0.66 0.83 0.45 0.39 0.51 0.59 0.61 0.60 0.55 0.53 0.42 0.32 0.22 0.16 0.18 0.20 0.21 0.30 0.38 0.26 0.27 0.37 0.32 0.31 0.32 0.32 0.63 0.73 0.82
0.94 0.94 0.62 0.50 0.40 0.35 0.70 0.53 0.62 0.74 0.60 0.46 0.57 0.55 0.37 0.62 0.79 0.66 0.59 0.63 0.84 0.98 0.85 0.73 0.60 0.44 0.34 0.26 0.22 0.19 0.19 0.21 0.26 0.28 0.42 0.59 0.51 0.46 0.43 0.46 0.47 0.43 0.60
1.23 1.10 0.78 0.61 0.45 0.45 0.47 0.74 0.78 0.77 0.72 0.53 0.49 0.54 0.56 0.52 0.71 0.65 0.61 0.68 0.78 0.98 1.22 1.16 0.96 0.77 0.75 0.78 0.53 0.45 0.56 0.62 0.62 0.64 0.64 0.60 0.48 0.48 0.41 0.41 0.62 0.49 0.49
0.81 1.04 0.98 0.68 0.60 0.60 0.72 0.72 0.76 0.69 0.89 0.77 0.57 0.57 0.50 0.53 0.64 0.81 0.78 0.92 0.89 0.94 1.21 1.32 1.34 1.30 1.29 1.50 1.15 0.85 0.87 0.76 0.84 0.77 0.66 0.48 0.41 0.46 0.49 0.45 0.47 0.53 0.48
0.87 0.82 0.83 0.85 0.88 0.81 0.87 0.83 0.90 0.75 0.62 0.77 0.70 0.63 0.80 0.76 0.72 0.66 0.67 0.72 0.90 0.90 0.87 1.02 1.02 1.01 1.10 1.32 1.41 0.97 0.78 0.79 0.71 0.69 0.47 0.43 0.47 0.45 0.56 0.49 0.37 0.38 0.39